Weather in Yamarovka

Russia / Zabaykalsky Krai     50°34′41″N   110°14′49″E
temp.,
°C
wind,
m/s
gust,
m/s
humid.,
%
clouds,
%
prec.,
mm/h
press.,
hPa
HPBL,
m
16 may, sun
sun1600:00+3wsw23692 0.0 101739
03:00+1wsw23705 0.0 101853
06:000wsw22705 0.0 101840
09:00+8w38455 0.0 1015782
12:00+14w61036100 0.0 10111981
15:00+17wnw71027100 0.0 10082556
18:00+17wnw6112980 0.0 10062850
21:00+11wnw3849100 0.0 1008270
17 may, mon
mon1700:00+6wsw23815 0.0 101145
03:00+4sw219191 0.0 101015
06:00+3sse1289100 0.0 100727
09:00+11w2648100 0.0 1002689
12:00+15wnw61140100 0.0 10012166
15:00+9wnw5980100 0.7 10041096
18:00+10wnw586362 0.3 10051446
21:00+7nw486321 0.3 1007690
18 may, tue
tue1800:00+3w36785 0.0 1009304
03:00+2wsw2386100 0.0 101072
06:00+3w1583100 0.0 1010474
09:00+5w466699 0.2 10101236
12:00+8w4750100 0.1 10081695
15:00+10w584695 0.1 10071899
18:00+10wnw584477 0.0 10051868
21:00+8wsw26555 0.0 1005138
19 may, wed
wed1900:00+3sw2277100 0.0 100732
03:00+2sse22836 0.0 100537
06:00+2sse138698 0.1 100253
09:00+10w1656100 0.2 996671
12:00+13w5114998 0.0 9951325
15:00+16wnw5942100 0.0 9942077
18:00+16nw59429 0.0 9961965
21:00+10wnw226050 0.0 99820
20 may, thu
thu2000:00+6se1179100 0.0 100111
03:00+5ese2284100 0.0 100021
06:00+6e1279100 0.0 99845
09:00+11nne1156100 0.0 996345
12:00+19wnw133712 0.0 995827
15:00+22wnw252986 0.0 9921806
18:00+24nne232751 0.0 9881235
21:00+12e3788100 2.5 991257